This demonstration page uses our WeatherBlox Daily Observations layout. Learn more.

Left ArrowRight Arrow

39.51506, -84.39828

Hourly Observations for February 7, 2019

Temp ( °F °C ) Dew Point ( °F °C ) Humidity (%) Winds ( mph kmh ) Pressure ( in mb ) Visibility ( mi km ) Precip ( " mm )
12:15 am 00:15 Cloudy with Light Rain 48 9 48 8.9 99 99 NNE 3 6 29.98 1015 1 2 0.01 0.25
12:35 am 00:35 Cloudy with Light Rain 48 9 48 8.9 99 99 Calm 29.99 1016 1 1 0.01 0.25
12:55 am 00:55 Cloudy with Light Rain 48 9 48 9 100 100 Calm 29.99 1016 1 1 0.01 0.25
1:15 am 01:15 Cloudy with Fog 47 8.1 46 8 99 99 Calm 29.98 1015 1 1 0.00 0.00
1:35 am 01:35 Cloudy with Light Rain 47 8.4 47 8.3 99 99 Calm 29.97 1015 1 1 0.00 0.00
1:55 am 01:55 Cloudy with Fog 47 8.2 47 8.1 99 99 Calm 29.96 1015 0 0 0.00 0.00
2:15 am 02:15 Cloudy with Fog 47 8.2 47 8.2 100 100 Calm 29.96 1015 1 1 0.00 0.00
2:35 am 02:35 Cloudy with Mist and Fog 46 8 46 7.9 99 99 Calm 29.95 1014 1 1 0.00 0.00
2:55 am 02:55 Cloudy with Mist and Fog 47 8.3 47 8.3 100 100 N 5 7 29.94 1014 1 1 0.00 0.00
3:15 am 03:15 Cloudy with Mist and Fog 49 9.2 48 9.1 99 99 NE 3 6 29.94 1014 2 2 0.00 0.00
3:35 am 03:35 Cloudy with Fog 48 8.9 48 8.8 99 99 Calm 29.95 1014 0 0 0.00 0.00
3:55 am 03:55 Cloudy with Fog 48 9 48 8.9 99 99 Calm 29.95 1014 0 0 0.00 0.00
4:15 am 04:15 Cloudy with Fog 48 8.7 47 8.6 99 99 N 3 6 29.94 1014 0 0 0.00 0.00
4:35 am 04:35 Cloudy with Fog 47 8.3 47 8.2 99 99 Calm 29.95 1014 1 1 0.00 0.00
4:55 am 04:55 Cloudy with Fog 47 8.4 47 8.4 100 100 Calm 29.95 1014 1 1 0.00 0.00
5:15 am 05:15 Cloudy with Mist and Fog 47 8.2 47 8.2 100 100 NNE 3 6 29.95 1014 1 1 0.00 0.00
5:35 am 05:35 Cloudy with Fog 47 8.4 47 8.3 99 99 Calm 29.95 1014 1 1 0.00 0.00
5:55 am 05:55 Cloudy with Fog 47 8.6 47 8.5 99 99 Calm 29.95 1014 1 1 0.00 0.00
6:15 am 06:15 Cloudy with Fog 48 8.9 48 8.9 100 100 NNE 6 9 29.92 1013 0 0 0.00 0.00
6:35 am 06:35 Cloudy with Fog 48 9 48 9 100 100 NE 5 7 29.91 1013 0 0 0.00 0.00
6:55 am 06:55 Cloudy with Fog 48 9.1 48 9 99 99 NE 5 7 29.90 1013 0 0 0.00 0.00
7:15 am 07:15 Cloudy with Fog 48 9.1 48 9 99 99 N 3 6 29.89 1012 0 0 0.00 0.00
7:35 am 07:35 Cloudy with Fog 49 9.2 48 9.1 99 99 NNE 3 6 29.90 1013 0 0 0.00 0.00
7:55 am 07:55 Cloudy with Fog 48 9.1 48 9.1 100 100 N 5 7 29.89 1012 5 8 0.00 0.00
8:15 am 08:15 Cloudy with Light Rain 50 10.2 50 10.2 100 100 Calm 29.89 1012 1 1 0.00 0.00
8:35 am 08:35 Cloudy with Rain 49 9.6 49 9.5 99 99 W 5 7 29.93 1014 1 1 0.00 0.00
8:55 am 08:55 Cloudy with Heavy Rain 50 10.1 50 10.1 100 100 ESE 3 6 29.92 1013 1 1 0.06 1.52
9:15 am 09:15 Cloudy with Light Rain 51 10.4 51 10.4 100 100 ENE 9 15 29.89 1012 1 1 0.02 0.51
9:35 am 09:35 Cloudy with Light Rain 51 10.4 51 10.4 100 100 ENE 5 7 29.89 1012 1 1 0.02 0.51
9:55 am 09:55 Cloudy with Light Rain 52 11 52 11 100 100 Calm 29.89 1012 3 5 0.03 0.76
10:15 am 10:15 Cloudy with Rain 51 10.8 51 10.8 100 100 NE 3 6 29.89 1012 3 5 0.01 0.25
10:35 am 10:35 Cloudy with Light Rain 52 11 52 10.9 99 99 Calm 29.87 1011 1 1 0.03 0.76
10:55 am 10:55 Cloudy with Rain 53 11.9 53 11.9 100 100 SSE 3 6 29.86 1011 2 3 0.06 1.52
11:15 am 11:15 Cloudy with Rain 56 13.2 56 13.1 99 99 SSE 8 13 29.85 1011 3 4 0.05 1.27
11:35 am 11:35 Cloudy with Thunderstorms 56 13.5 56 13.4 99 99 SE 7 11 29.84 1011 5 8 0.11 2.79
11:55 am 11:55 Cloudy with Thunderstorms 56 13.5 56 13.4 99 99 SE 9 15 29.82 1010 4 6 0.19 4.83
12:15 pm 12:15 Cloudy with Mist and Fog 57 13.7 56 13.6 99 99 SSE 5 7 29.84 1010 3 4 0.16 4.06
12:35 pm 12:35 Cloudy with Mist and Fog 56 13.6 56 13.4 99 99 SE 9 15 29.79 1009 4 6 0.27 6.86
12:55 pm 12:55 Cloudy with Mist and Fog 57 13.7 56 13.5 99 99 SSE 8 13 29.77 1008 5 8 0.36 9.14
1:15 pm 13:15 Cloudy with Light Rain 57 13.9 57 13.7 99 99 SE 8 13 29.75 1007 10 16 0.00 0.00
1:35 pm 13:35 Cloudy with Light Rain 58 14.2 57 13.9 98 98 S 10 17 29.74 1007 10 16 0.01 0.25
1:55 pm 13:55 Cloudy with Light Rain 58 14.5 57 14 97 97 S 8 13 29.73 1007 10 16 0.02 0.51
2:15 pm 14:15 Cloudy with Light Rain 59 15 58 14.6 97 97 S 8 13 29.72 1006 10 16 0.00 0.00
2:35 pm 14:35 Cloudy with Light Rain 61 15.9 60 15.3 96 96 SSW 12 19 29.70 1006 7 11 0.02 0.51
2:55 pm 14:55 Cloudy with Heavy Rain 61 16 60 15.3 96 96 WNW 16 26 29.75 1008 2 3 0.26 6.60
3:15 pm 15:15 Cloudy with Rain 60 15.4 58 14.7 96 96 WSW 8 13 29.75 1007 7 11 0.07 1.78
3:35 pm 15:35 Cloudy with Light Rain 59 15.1 58 14.2 94 94 SSW 8 13 29.76 1008 10 16 0.09 2.29
3:55 pm 15:55 Cloudy with Light Rain 59 14.8 57 14.1 96 96 S 6 9 29.75 1007 10 16 0.09 2.29
4:15 pm 16:15 Cloudy with Light Rain 58 14.7 57 14.1 96 96 Calm 29.74 1007 10 16 0.01 0.25
4:35 pm 16:35 Cloudy with Light Rain 58 14.7 58 14.3 97 97 S 7 11 29.75 1007 10 16 0.03 0.76
4:55 pm 16:55 Cloudy with Light Rain 58 14.7 58 14.4 98 98 S 7 11 29.75 1007 5 8 0.03 0.76
5:15 pm 17:15 Cloudy with Light Rain 60 15.3 59 14.9 97 97 S 8 13 29.73 1007 7 11 0.01 0.25
5:35 pm 17:35 Cloudy with Light Rain 60 15.5 59 15 97 97 S 10 17 29.73 1007 10 16 0.02 0.51
5:55 pm 17:55 Cloudy with Light Rain 60 15.7 59 15 96 96 S 13 20 29.71 1006 10 16 0.04 1.02
6:15 pm 18:15 Cloudy with Light Rain 60 15.8 58 14.7 93 93 S 18 30 29.71 1006 7 11 0.03 0.76
6:35 pm 18:35 Cloudy with Rain 60 15.8 58 14.6 93 93 SSW 15 24 29.71 1006 10 16 0.04 1.02
7:15 pm 19:15 Cloudy with Rain 60 15.5 58 14.3 93 93 SSW 16 26 29.73 1007 7 11 0.02 0.51
7:35 pm 19:35 Cloudy 60 15.4 58 14.3 93 93 SSW 14 22 29.72 1006 10 16 0.03 0.76
7:55 pm 19:55 Cloudy with Light Rain 57 14 55 12.7 92 92 W 25 41 29.78 1008 5 8 0.04 1.02
8:15 pm 20:15 Cloudy with Light Rain 46 8 43 6.3 89 89 WNW 29 46 29.81 1010 7 11 0.00 0.00
8:35 pm 20:35 Cloudy 45 7 41 5 87 87 W 21 33 29.85 1011 10 16 0.00 0.00
8:55 pm 20:55 Cloudy 43 6.1 39 3.8 85 85 W 18 30 29.89 1012 10 16 0.00 0.00
9:15 pm 21:15 Cloudy 42 5.7 38 3.5 86 86 W 16 26 29.91 1013 10 16 0.00 0.00
9:35 pm 21:35 Cloudy 41 5.1 36 2.3 82 82 W 21 33 29.93 1014 10 16 0.00 0.00
9:55 pm 21:55 Cloudy 40 4.7 36 2 83 83 W 22 35 29.95 1014 10 16 0.00 0.00
10:15 pm 22:15 Cloudy 39 4.1 32 0.1 75 75 W 22 35 29.96 1015 10 16 0.00 0.00
10:35 pm 22:35 Cloudy 38 3.4 33 0.4 81 81 W 18 30 30.00 1016 10 16 0.00 0.00
10:55 pm 22:55 Cloudy 38 3.1 33 0.4 83 83 W 17 28 30.01 1016 10 16 0.00 0.00
11:15 pm 23:15 Cloudy 37 2.8 31 -0.5 79 79 W 16 26 30.04 1017 10 16 0.00 0.00
11:35 pm 23:35 Cloudy with Light Rain 35 1.8 31 -0.3 86 86 W 15 24 30.04 1017 7 11 0.00 0.00
11:55 pm 23:55 Cloudy 35 1.7 30 -0.9 83 83 W 16 26 30.06 1018 10 16 0.00 0.00

Powered by AerisWeather